Regional Weather Roundup
Issued by NWS

Home | Current Version | Previous Version | Graphics & Text | Print | Product List | Glossary On
Versions: 1 2 3 4 5 6 7 8 9 10 11 12 13 14 15 16 17 18 19 20 21 22 23 24 25 26 27 28 29 30 31 32 33 34 35 36 37 38 39 40 41 42 43 44 45 46 47 48 49 50
000
ASUS43 KFSD 200210
RWRSD

WEATHER ROUNDUP FOR SOUTH DAKOTA
NATIONAL WEATHER SERVICE SIOUX FALLS SD
900 PM CDT FRI SEP 19 2014

NOTE: "FAIR" INDICATES FEW OR NO CLOUDS BELOW 12,000 FEET WITH NO
SIGNIFICANT WEATHER AND/OR OBSTRUCTIONS TO VISIBILITY.


SDZ001>005-009-010-012>017-200300-
NORTHWEST AND NORTH CENTRAL SOUTH DAKOTA

CITY           SKY/WX    TMP DP  RH WIND       PRES   REMARKS
BUFFALO          N/A     60  48  64 W12       29.84R
FAITH            N/A     66  49  54 NW10      29.86R
MOBRIDGE       CLOUDY    69  55  60 NW6       29.75R
$$

SDZ012>016-024>037-041>051-057-063-072>074-200300-
SOUTHWEST AND SOUTH CENTRAL SOUTH DAKOTA

CITY           SKY/WX    TMP DP  RH WIND       PRES   REMARKS
RAPID CTY ARPT CLEAR     69  47  45 N13       29.91R
PIERRE         CLEAR     71  53  52 N9        29.77R
CUSTER         CLEAR     63  47  55 NE5       30.04R
ELLSWORTH AFB  CLEAR     72  48  41 N9        29.92R
PHILIP         CLOUDY    72  54  53 N9        29.83R
PINE RIDGE     CLEAR     64  55  72 E7        29.89R
WINNER         FAIR      77  55  46 NW5       29.80R
$$

SDZ004>011-016>023-039-040-200300-
NORTHEAST SOUTH DAKOTA

CITY           SKY/WX    TMP DP  RH WIND       PRES   REMARKS
ABERDEEN       PTCLDY    67  57  70 W7        29.71R
WATERTOWN      PTCLDY    63  61  93 SW5       29.73R
SISSETON         N/A     71  65  81 W10       29.66R
$$

SDZ017-020-022-023-036>040-048>070-200300-
SOUTHEAST SOUTH DAKOTA

CITY           SKY/WX    TMP DP  RH WIND       PRES   REMARKS
SIOUX FALLS    MOCLDY    75  66  73 NW7       29.73R
HURON          PTCLDY    69  58  67 W5        29.73R
CHAMBERLAIN    PTCLDY    71  56  59 NW6       29.78R
MITCHELL       CLOUDY    75  64  68 W6        29.74R
YANKTON        PTCLDY    75  68  78 CALM      29.70S
$$

ABBREVIATIONS USED IN REMARKS
   TC - TEMPERATURE IN CELSIUS
  WCI - WIND CHILL INDEX
   HX - HEAT INDEX
  VSB - VISIBILITY



USA.gov is the U.S. government's official web portal to all federal, state and local government web resources and services.